Theta_e
360 360 361 361 360 359 360 361 361 360 362 362 361 362 361 361 360 359 359 359 359 357 358 358 357 356 354 352 357 361 362 361 359 358 361 358 358 358 355 356 355 356 354 356 361 362 362 362 362 363 363 362 363 364 364 364 365 364 364 364 364 364 363 364 363 362 363 362 361 362 361 361 362 363 363 362 361 361 362 361 362 357 359 362 362
359 358 361 363 359 359 360 360 360 358 360 361 360 362 361 361 361 361 359 359 358 358 357 356 356 355 353 353 357 361 361 360 359 360 359 360 360 358 356 356 355 356 355 352 355 360 361 362 362 362 362 363 364 363 363 363 363 363 363 363 364 363 363 363 363 362 363 363 363 363 363 362 362 362 362 363 363 362 361 359 359 357 361 362 362
361 364 362 363 359 359 360 361 361 359 359 360 361 361 362 362 360 360 359 358 358 358 356 356 356 355 354 358 358 360 360 361 361 361 361 361 360 357 357 357 357 357 356 355 352 351 357 361 362 361 362 362 363 363 363 363 362 362 363 363 363 363 363 363 363 362 363 364 364 363 363 362 362 362 362 362 363 363 363 361 361 361 360 361 362
361 360 361 361 359 359 361 361 360 360 358 360 360 361 361 361 360 359 359 358 358 357 355 355 356 357 358 354 359 360 361 360 361 362 362 362 360 360 360 358 357 357 357 357 357 356 352 357 360 359 361 361 362 362 362 363 362 362 362 363 363 364 363 363 363 364 364 363 361 361 362 362 362 362 362 362 362 362 364 363 363 363 362 361 361
359 359 361 361 364 360 359 360 360 360 359 359 360 360 361 360 361 360 359 359 358 357 357 358 357 358 358 359 359 360 360 357 360 362 362 361 360 361 360 359 358 358 357 356 357 356 354 354 358 359 360 361 362 362 363 362 362 363 363 363 363 364 363 363 363 363 363 362 361 359 359 360 362 362 362 362 361 361 361 361 362 361 361 361 360
358 361 360 363 362 361 358 358 359 359 359 359 360 360 360 359 359 359 359 359 358 358 359 360 359 357 356 359 359 361 359 361 361 361 362 361 361 362 360 360 359 357 358 358 356 355 354 353 356 356 361 361 362 363 363 363 363 362 363 363 363 363 363 363 363 362 361 362 361 362 357 356 357 360 363 362 362 361 361 360 360 360 361 361 361
358 359 359 360 362 361 358 358 358 359 359 360 360 360 361 361 359 358 359 358 359 357 360 361 359 358 358 354 357 360 359 360 363 362 362 361 362 361 360 359 359 359 359 358 358 357 357 354 355 356 358 361 362 363 364 364 364 364 364 363 363 362 362 362 362 361 362 359 362 360 355 354 356 359 362 361 361 361 360 360 360 359 359 358 357
355 357 357 357 361 360 357 357 358 359 359 359 360 360 360 360 359 359 359 359 359 359 358 360 357 356 356 353 358 360 362 362 362 362 361 361 360 360 361 360 360 359 359 358 358 357 355 357 356 357 357 360 362 362 363 363 363 364 363 363 364 363 363 362 360 362 362 361 360 359 355 353 355 356 360 360 360 360 360 360 359 358 358 359 360
355 356 357 355 362 360 358 357 357 357 358 360 360 359 361 360 359 359 359 358 358 357 359 359 358 357 357 358 360 361 362 361 361 361 361 360 360 360 360 360 359 359 359 358 358 357 357 357 356 358 359 360 361 362 362 361 362 363 363 364 364 363 362 361 361 362 360 358 357 357 358 355 353 356 360 360 359 359 358 358 359 359 358 358 357
353 357 358 361 362 360 359 358 357 358 358 359 360 359 359 360 360 359 358 356 356 355 357 358 358 357 357 358 359 360 361 362 361 360 360 360 359 360 360 360 360 360 360 359 358 357 356 356 355 355 359 361 362 361 362 362 362 362 363 362 362 362 362 361 359 359 354 355 354 356 356 357 354 353 358 359 359 359 360 360 358 361 360 359 359
355 357 359 362 362 361 359 359 358 359 359 359 360 360 359 359 359 359 358 355 355 357 358 358 356 356 355 357 356 359 360 361 362 361 360 359 359 359 360 359 359 359 359 359 358 358 356 357 359 358 360 362 362 361 361 362 363 363 362 361 360 359 360 362 360 353 353 353 353 354 355 360 356 358 360 360 360 359 360 360 360 360 360 359 359
355 361 362 363 365 359 360 359 359 360 360 360 360 360 359 359 357 358 356 354 354 356 357 358 355 356 356 357 355 356 360 360 362 361 361 359 359 358 359 359 359 359 359 358 357 358 359 359 360 360 360 362 360 360 361 361 362 361 360 359 358 358 359 361 359 352 355 354 355 355 352 355 357 358 359 359 359 360 359 358 359 359 358 358 358
355 359 359 361 362 359 359 360 360 359 358 359 358 359 358 358 358 356 355 353 354 355 356 356 357 357 356 357 357 358 360 360 361 361 360 359 359 359 359 358 359 359 359 359 357 356 359 361 360 361 361 362 362 361 361 362 362 362 360 359 359 359 361 360 353 353 354 356 356 354 354 356 359 359 359 359 357 357 357 357 357 357 357 357 357
355 356 358 359 361 362 359 360 360 360 359 359 359 360 359 357 355 355 354 352 354 355 357 356 358 358 359 359 360 360 360 359 360 361 360 360 359 360 360 359 358 359 360 359 358 357 360 362 361 361 362 362 362 363 361 361 362 361 361 361 360 361 361 364 358 353 354 354 355 353 356 357 357 357 356 356 356 355 357 357 357 357 357 356 356
354 356 358 360 361 361 361 359 360 359 360 359 359 360 358 356 356 355 354 352 355 356 357 359 358 357 358 359 360 360 359 360 360 360 360 360 360 360 359 359 360 360 360 360 359 360 362 362 361 361 362 362 363 362 362 361 361 361 361 361 361 361 363 356 349 352 351 352 353 353 352 355 357 356 357 356 356 355 356 355 354 355 354 353 353
356 356 358 359 360 361 359 360 359 360 359 359 359 359 359 354 356 356 355 356 354 356 358 357 357 357 357 359 359 360 359 359 360 360 359 360 359 358 359 359 360 360 360 361 359 360 362 362 361 361 362 362 363 361 361 362 361 361 361 361 362 365 365 365 352 352 352 347 350 354 354 355 357 355 355 354 354 353 353 351 351 351 352 351 351
357 357 359 358 361 361 359 361 359 359 359 358 359 359 357 357 359 356 356 355 356 356 357 358 358 358 356 356 360 360 360 360 360 359 360 360 359 359 360 359 360 359 359 359 361 360 362 361 362 362 362 362 363 361 362 362 361 360 359 360 361 365 364 367 351 351 346 349 349 352 355 352 355 355 354 354 353 351 352 353 353 354 354 353 352
358 359 357 357 358 358 358 357 363 361 361 360 358 357 357 359 358 358 356 357 357 358 357 359 358 358 356 357 359 360 360 360 361 361 360 360 359 359 360 359 360 359 359 359 361 360 361 363 363 363 362 362 360 360 361 361 360 360 359 359 362 363 366 367 353 351 348 354 350 354 354 355 354 352 352 350 351 351 352 353 353 352 351 350 351
355 358 359 358 356 355 358 361 359 362 361 357 361 360 357 358 357 359 358 358 359 359 358 358 358 357 358 359 360 361 361 361 362 361 361 361 360 360 360 360 361 360 359 361 361 361 361 361 361 361 361 361 361 361 360 360 361 361 362 361 362 366 364 365 353 347 355 354 355 351 348 356 356 355 353 353 352 352 352 353 353 351 352 351 352
355 356 358 360 361 360 365 355 357 356 362 358 359 360 358 357 357 357 358 358 358 358 358 358 358 359 359 359 362 363 362 362 363 361 363 362 361 359 360 360 360 361 361 361 360 360 359 361 361 362 362 363 362 362 363 362 363 362 364 364 363 361 364 362 348 352 347 349 355 351 355 357 356 355 354 351 353 353 354 353 353 353 353 354 355
354 355 360 358 356 355 358 361 358 356 358 356 356 358 360 359 357 357 358 356 357 356 357 359 359 358 359 361 359 361 363 362 361 360 362 362 362 362 362 362 361 360 360 359 359 358 359 360 361 362 364 363 360 361 362 363 362 365 362 365 364 361 361 356 349 350 351 353 352 349 356 356 356 355 354 353 354 353 354 355 355 356 355 355 356
353 354 357 357 356 357 359 358 357 358 357 355 354 357 358 357 358 358 361 357 357 356 357 358 362 363 361 363 364 358 361 363 359 359 358 361 361 362 362 361 360 360 360 361 360 361 362 362 362 364 362 363 362 359 361 363 364 365 365 367 359 353 354 350 350 350 352 354 350 354 356 357 356 356 355 355 354 355 355 355 355 354 355 356 356
352 353 356 357 356 357 358 359 358 357 354 353 353 355 358 361 360 363 361 358 358 358 363 363 360 359 362 362 363 362 363 360 358 357 359 359 360 361 361 361 362 363 362 362 364 364 364 363 364 362 364 363 362 360 360 358 359 366 367 361 359 351 353 351 351 353 354 353 348 355 356 358 358 357 357 356 356 357 357 356 354 356 357 357 357
350 352 354 357 357 355 358 358 360 362 357 352 355 358 361 362 360 362 360 362 363 364 363 364 364 361 364 364 363 363 362 362 361 363 362 359 363 363 362 362 362 363 363 363 364 364 364 365 364 365 364 364 361 355 353 355 356 362 363 356 352 351 352 354 351 353 355 352 348 356 356 357 359 359 358 357 357 357 357 357 357 358 359 360 360
351 354 356 358 357 357 359 360 359 358 359 357 358 358 357 358 359 359 360 360 359 362 364 363 365 365 365 358 356 354 354 358 360 357 352 355 358 358 362 360 362 363 365 365 360 358 362 361 362 364 362 359 352 356 354 355 357 352 352 351 351 353 351 352 352 353 356 354 354 356 356 357 359 360 359 358 357 357 356 357 358 359 360 360 360
351 353 355 357 357 359 360 359 359 359 359 360 356 357 357 356 355 359 359 361 361 361 361 365 364 363 358 352 352 352 353 354 355 354 355 357 356 357 362 361 359 359 363 361 354 358 360 356 358 358 354 355 351 355 353 357 354 348 352 357 353 355 355 352 353 355 357 352 356 357 357 355 359 359 361 359 358 358 360 360 360 360 360 361 360
350 353 357 358 359 360 361 359 358 359 360 361 358 358 357 359 359 360 359 360 362 360 360 358 361 358 352 352 348 348 348 349 353 355 359 357 356 357 360 362 360 359 358 357 358 361 359 357 356 357 356 348 347 353 351 353 353 347 350 351 353 353 356 355 356 355 357 355 355 359 358 356 358 357 361 362 361 360 361 362 362 363 363 363 364
351 353 355 358 360 359 362 359 357 357 357 359 358 357 360 358 359 361 360 358 358 356 356 357 357 351 354 352 350 350 347 349 355 357 357 359 362 355 358 358 356 357 359 359 360 357 357 356 359 356 355 355 350 351 350 348 351 352 347 349 351 356 356 354 359 359 357 356 358 360 358 360 358 358 360 362 363 363 364 364 364 364 365 365 365
349 352 355 356 358 360 360 358 359 360 358 358 357 358 358 357 359 358 358 360 359 356 356 358 357 356 354 355 355 348 348 350 351 355 359 358 359 356 359 355 358 360 361 356 359 360 357 357 360 358 359 359 350 352 351 350 354 351 348 347 350 356 355 356 358 354 355 358 358 358 359 360 359 360 360 362 363 365 366 366 366 365 366 367 367
350 353 355 357 358 358 357 358 359 360 359 357 359 359 359 359 359 359 361 360 357 355 356 354 354 354 353 355 352 350 350 351 355 361 358 358 358 356 357 358 357 358 359 358 358 357 357 357 358 360 356 355 352 357 353 349 345 348 350 349 346 348 353 353 353 348 350 355 357 357 360 360 361 361 362 363 364 366 367 366 366 367 367 368 368
350 352 354 356 357 356 355 359 359 361 359 357 360 360 361 358 358 357 359 357 355 356 354 351 350 354 361 364 360 358 354 356 359 361 361 358 358 356 357 359 356 357 358 357 361 361 358 358 359 358 361 359 356 354 348 354 352 345 347 345 348 349 349 351 347 347 348 353 355 359 356 363 360 362 364 364 366 367 368 368 369 370 370 370 371
349 351 355 358 356 355 356 358 358 359 359 358 361 360 359 356 357 357 353 355 356 354 352 352 352 355 360 363 366 361 363 361 361 360 360 358 358 360 357 359 357 358 362 359 360 363 362 361 359 360 359 359 356 355 359 349 349 345 353 345 345 348 348 350 345 343 342 351 360 351 361 360 362 364 365 367 367 367 368 368 370 370 369 370 371
351 352 355 355 355 355 356 357 358 360 358 356 356 357 356 353 354 353 355 353 354 353 352 352 354 358 362 367 368 369 368 363 366 363 362 360 358 358 359 361 362 362 362 360 361 364 362 358 359 359 360 358 354 355 349 350 351 352 348 344 342 343 347 350 351 342 340 345 350 346 350 359 364 367 368 368 367 367 367 368 368 368 370 370 370
351 353 353 354 355 355 354 354 355 354 355 354 355 352 352 352 353 352 356 353 352 350 352 354 355 358 363 367 367 369 367 368 366 365 368 361 361 361 359 360 361 361 361 364 360 359 358 360 357 355 355 354 353 356 348 347 344 347 348 348 347 350 348 344 337 345 347 340 343 357 352 352 359 360 360 371 370 369 370 368 370 371 371 370 371
352 351 352 353 353 354 352 352 353 353 353 353 352 352 353 350 351 353 353 353 352 351 349 351 352 356 362 364 366 366 368 368 368 370 360 361 358 358 360 359 363 365 361 359 362 361 363 360 358 355 357 351 352 356 351 349 340 346 352 354 348 349 347 346 344 343 344 350 351 341 351 348 347 357 353 363 373 368 370 372 371 371 372 371 372
350 352 353 353 353 353 352 352 352 352 353 353 353 354 351 352 352 353 354 354 351 350 349 351 355 355 359 364 368 369 368 370 371 368 361 359 356 358 360 362 362 363 360 360 365 361 362 359 361 357 353 348 352 351 352 350 345 342 344 345 345 349 344 345 349 342 342 350 352 349 351 354 352 357 353 352 354 364 370 372 374 372 373 372 372
350 352 352 353 352 351 352 350 351 350 352 352 354 354 355 353 353 352 350 353 349 351 352 357 358 359 359 361 368 368 370 370 369 368 367 358 358 359 356 358 364 362 363 360 359 361 361 353 358 361 360 356 347 344 349 353 346 344 343 341 345 352 348 351 347 346 340 345 349 343 346 350 357 352 360 352 359 358 369 369 373 373 375 377 373
352 352 353 352 351 351 350 351 351 351 353 354 357 355 356 355 354 354 359 354 354 355 356 356 356 357 359 363 367 365 368 369 369 368 370 361 361 361 362 363 363 362 362 360 365 362 363 360 355 357 359 358 350 349 347 347 343 342 343 341 345 339 341 346 349 350 346 344 343 344 349 347 349 347 346 350 347 352 356 371 366 370 368 371 373
350 352 353 353 352 352 352 352 351 352 355 357 358 359 355 357 355 356 358 356 359 355 356 356 355 356 361 365 367 367 367 370 367 366 370 360 361 364 365 363 363 361 364 361 360 362 364 358 358 359 360 357 353 352 350 351 344 343 341 339 343 349 351 342 349 342 345 343 342 348 344 347 346 349 353 350 347 351 356 360 355 361 358 366 375
351 352 354 353 352 354 354 353 353 352 356 356 357 354 352 356 352 354 357 357 357 356 359 358 356 357 359 361 368 366 367 370 370 368 369 366 361 363 367 366 363 361 364 361 362 361 359 357 355 355 359 356 355 356 353 353 346 345 344 343 344 345 347 346 349 347 349 347 345 346 345 343 354 351 348 348 350 345 354 356 360 356 359 359 371
353 352 352 352 351 355 355 354 355 355 356 353 354 351 350 354 355 350 350 353 357 357 356 357 357 356 360 363 367 363 369 369 369 372 366 364 367 367 369 367 366 364 364 363 360 360 363 365 357 362 354 353 352 351 343 349 347 341 348 346 345 347 342 345 346 347 346 347 344 343 345 349 352 353 356 351 350 349 351 360 357 360 361 365 365
351 351 351 352 352 353 354 354 356 354 353 351 352 353 357 357 353 352 351 353 355 354 357 357 354 359 366 364 367 367 371 371 372 372 371 368 366 366 368 367 367 363 362 362 363 363 363 362 357 358 358 352 352 350 345 353 347 343 343 340 343 345 347 344 343 343 344 346 347 351 351 347 355 350 351 350 356 358 352 357 361 356 360 363 362
349 349 351 352 352 353 354 355 355 352 352 352 355 357 358 358 355 352 352 353 356 357 355 356 356 358 362 365 368 368 370 370 370 368 367 367 366 366 364 368 366 362 362 364 359 359 359 357 360 350 351 354 352 351 352 351 349 343 345 348 338 339 341 343 344 343 341 343 344 347 346 341 351 353 349 350 354 360 351 354 356 359 362 363 362
349 348 349 350 350 354 355 356 355 354 354 355 357 359 359 360 359 358 356 356 354 358 359 360 359 358 359 363 368 366 369 363 366 364 364 368 367 368 365 365 365 364 363 362 360 359 357 361 355 354 355 352 351 352 353 353 348 348 348 341 339 340 336 345 345 347 346 347 348 357 349 343 341 347 353 349 348 354 359 355 355 359 364 365 370
347 347 348 349 348 351 356 357 356 355 355 357 359 361 363 360 363 361 362 360 359 358 358 355 359 361 360 360 363 367 366 364 364 366 365 368 369 370 369 367 365 364 361 360 359 361 358 362 356 364 360 350 344 350 353 353 350 350 347 348 341 340 340 341 339 347 346 342 346 344 348 349 347 349 349 348 349 354 350 351 360 355 362 363 365
347 347 348 348 349 352 356 358 357 356 354 358 361 361 360 358 359 355 352 352 351 348 349 349 351 352 363 357 362 361 362 367 368 367 367 364 367 368 369 369 367 361 362 363 363 357 353 367 360 359 358 352 353 346 348 354 349 354 352 348 349 341 342 342 340 344 355 351 345 345 348 346 349 345 352 350 348 355 360 351 356 356 361 362 361
346 349 349 348 349 352 356 358 357 357 355 360 363 361 359 358 357 353 352 350 348 348 354 352 352 350 358 360 361 363 364 364 365 368 368 370 372 371 369 367 365 365 362 360 359 356 355 358 363 363 360 358 363 352 351 349 352 355 350 350 350 349 348 344 340 345 345 351 350 344 342 346 346 346 351 347 348 358 355 355 358 354 360 364 362
345 347 349 348 350 354 356 357 357 358 357 359 361 362 358 358 358 353 352 348 348 352 354 356 356 359 356 359 358 360 360 365 365 371 369 367 371 370 370 369 365 367 362 363 361 359 361 368 361 364 361 361 361 361 352 354 346 355 350 349 351 353 350 346 350 342 341 341 342 345 346 345 350 344 347 348 348 350 351 355 355 354 362 364 366
344 345 348 351 352 353 356 358 357 360 356 359 359 360 361 359 358 354 352 354 351 355 357 360 359 361 359 361 361 360 359 362 368 364 367 370 365 373 371 371 367 367 359 360 360 360 362 364 364 361 367 368 366 359 358 359 351 350 352 357 352 347 348 350 350 350 352 341 341 341 342 346 347 347 350 350 351 352 352 354 357 359 368 366 363
344 346 347 350 352 354 356 357 359 359 362 361 360 359 361 361 357 356 355 356 355 357 356 357 361 361 360 365 362 365 360 358 361 367 368 369 367 370 369 366 363 365 361 364 363 358 360 362 360 363 365 361 362 360 360 358 355 355 351 355 353 350 350 349 345 345 344 346 340 341 341 339 341 346 349 352 353 351 356 355 355 361 360 364 361
345 345 346 348 351 355 358 356 360 359 363 363 360 359 360 361 358 358 357 356 358 360 359 360 361 361 361 360 362 361 361 360 360 360 365 362 366 369 366 366 364 367 361 365 362 360 363 362 361 363 366 366 363 363 357 360 361 361 355 354 355 346 345 345 347 348 346 342 342 340 339 340 341 340 347 350 354 353 354 354 358 360 362 361 363
Wind_Speed
8 10 10 13 10 8 10 11 11 11 12 13 14 14 14 13 13 12 11 9 8 8 10 10 10 10 8 3 8 8 8 11 16 13 12 14 12 18 14 17 15 15 15 13 13 14 14 14 13 13 12 12 12 12 13 13 13 14 14 15 16 16 15 15 15 16 16 17 18 14 10 8 9 12 11 12 13 12 11 9 8 8 9 11 12
10 9 10 11 12 10 9 11 11 10 10 13 14 14 13 13 13 12 11 10 9 9 9 10 9 9 6 1 4 8 9 12 15 13 12 14 14 14 15 16 14 15 16 14 16 12 14 13 13 14 14 13 12 13 13 12 13 13 14 16 16 15 15 15 15 15 16 16 17 16 14 12 12 12 12 14 13 12 10 9 10 9 9 12 12
11 10 10 12 13 12 11 12 13 11 10 11 13 13 13 13 12 12 9 9 10 9 8 9 9 8 5 6 4 7 11 14 13 13 14 13 16 15 15 15 17 16 15 17 12 14 11 13 13 14 13 12 11 13 13 13 13 14 14 15 16 15 15 14 14 14 16 16 16 17 16 15 13 13 13 14 14 13 13 13 12 13 10 13 12
11 10 9 11 13 12 13 13 13 13 11 11 13 13 13 13 12 11 10 10 10 9 8 7 8 8 3 1 3 8 14 13 14 13 14 15 15 15 14 15 16 15 15 14 14 11 11 9 12 13 13 13 11 13 14 13 13 13 14 14 15 14 13 13 11 12 12 13 15 13 9 10 11 14 13 14 13 13 14 14 15 14 14 13 13
12 11 10 9 10 11 13 13 13 14 13 12 13 14 14 12 11 11 10 9 9 8 8 8 8 7 6 6 7 9 13 15 12 13 15 16 15 14 14 14 15 17 17 14 13 15 10 14 14 13 9 12 12 14 13 13 13 13 13 13 13 12 10 9 7 6 6 4 6 6 9 11 10 13 13 13 13 12 12 12 12 12 13 13 12
10 10 10 9 10 11 11 12 12 13 14 13 14 13 13 13 11 11 10 10 10 10 9 11 10 9 7 8 8 11 12 12 15 15 15 16 14 14 13 14 15 15 16 17 12 12 14 8 7 8 6 11 13 14 13 11 12 12 12 12 12 11 9 7 6 4 2 4 2 4 8 10 10 9 13 12 12 12 12 11 11 11 11 12 13
11 8 9 9 8 10 11 10 11 12 13 14 14 14 14 14 13 12 10 10 10 9 10 12 10 9 10 7 5 10 13 14 15 14 14 15 14 14 13 14 16 15 14 16 13 9 12 10 6 5 8 9 11 14 12 11 11 11 11 11 11 9 8 6 5 3 2 1 1 4 7 10 10 8 11 11 10 10 10 9 9 9 9 8 9
9 6 7 9 9 11 11 9 8 11 12 13 14 14 13 13 13 13 10 9 10 8 10 13 11 8 12 7 7 10 14 14 14 13 14 13 14 14 13 13 15 15 14 14 13 8 9 12 7 8 8 8 11 13 13 11 10 9 10 11 10 8 6 4 3 4 6 1 4 5 6 10 10 8 11 10 9 9 9 9 9 9 10 10 10
9 8 7 9 11 13 10 10 8 9 10 10 11 12 12 12 12 12 9 8 10 9 9 12 13 8 9 9 9 10 13 14 14 14 13 13 13 12 12 13 14 14 15 14 14 11 10 10 10 6 9 10 10 12 12 11 10 10 9 9 9 7 3 2 1 5 4 6 6 6 7 9 10 10 10 10 9 9 7 7 9 10 10 9 10
11 11 8 7 10 12 11 8 7 9 9 10 10 10 10 11 11 11 9 7 10 7 6 11 12 9 7 8 9 11 13 13 13 13 13 12 12 12 12 12 13 13 15 15 13 12 9 9 13 4 6 8 9 10 11 11 10 9 8 7 5 3 2 4 6 7 5 7 8 8 7 10 10 9 10 10 10 11 11 10 8 12 9 11 11
9 8 10 10 12 11 10 8 7 8 10 10 10 10 11 11 11 11 8 6 8 10 9 9 12 10 7 9 5 8 11 12 13 13 12 12 11 11 12 12 13 14 15 15 13 12 7 7 11 5 6 8 8 9 11 10 9 8 7 6 3 1 1 5 8 4 5 7 8 8 11 14 9 8 11 10 10 10 11 11 11 11 11 11 9
9 11 10 10 12 11 9 8 8 9 10 10 11 10 11 13 13 10 9 7 6 9 7 8 11 11 11 12 9 6 10 11 12 12 11 11 11 12 13 12 13 14 15 14 11 8 8 6 8 7 6 7 8 10 10 10 9 7 6 4 3 4 7 7 5 6 6 7 7 7 10 11 10 10 11 10 9 9 9 9 9 10 10 10 10
11 11 9 10 9 10 9 9 8 9 10 10 9 12 11 12 14 14 12 8 6 7 10 9 9 11 12 14 13 10 11 10 11 12 11 10 11 12 13 12 11 12 15 14 10 6 6 7 8 7 6 6 9 10 10 9 8 7 5 4 4 5 9 10 2 5 6 7 4 6 10 10 10 11 10 8 7 6 7 7 8 8 9 8 7
11 11 9 8 8 10 9 9 9 9 10 13 12 11 13 14 13 14 14 12 10 10 12 11 11 11 11 10 12 11 12 11 10 11 12 10 9 11 13 12 10 10 12 14 10 6 5 8 7 5 4 5 7 7 8 8 7 5 4 4 3 7 7 11 4 5 5 5 6 7 9 9 9 9 8 7 6 6 6 7 7 7 7 7 6
10 13 7 8 9 8 11 9 9 9 9 10 10 10 12 14 15 18 18 16 12 13 12 13 14 12 10 11 11 12 12 12 10 10 11 11 10 10 12 12 11 10 10 11 10 8 8 7 6 4 4 6 6 6 8 7 6 5 3 1 3 6 9 6 4 5 4 3 4 8 9 8 10 9 7 6 6 6 6 6 5 6 5 4 4
13 11 10 8 8 9 7 8 9 9 9 9 9 10 9 13 13 16 16 18 16 12 13 12 14 13 11 9 12 12 12 12 11 10 10 10 10 10 11 11 11 10 9 10 9 6 8 7 5 4 3 3 5 7 7 6 5 4 2 1 6 7 9 10 3 3 3 5 4 5 10 8 10 7 6 4 5 5 6 5 5 5 5 3 3
16 10 9 6 6 7 8 7 8 9 10 10 11 9 11 11 11 14 16 16 18 16 14 14 13 13 11 8 10 11 12 13 11 11 11 10 9 10 10 10 11 11 10 6 7 7 7 6 5 4 4 4 3 6 6 5 4 3 2 2 3 7 8 11 2 4 4 3 2 6 8 8 9 6 5 4 4 5 6 5 5 5 4 3 2
13 12 12 7 3 7 4 8 8 8 8 9 11 10 10 12 11 14 14 14 16 16 15 15 14 13 11 9 11 12 11 12 12 11 11 10 9 9 9 9 9 10 9 7 4 8 8 8 6 5 4 4 5 5 5 4 3 3 2 3 4 8 10 11 2 5 5 2 3 9 7 9 10 6 5 4 4 4 4 4 4 3 1 1 0
8 16 7 8 10 10 10 7 5 5 7 8 5 8 11 11 11 13 15 15 14 15 16 15 15 14 13 12 14 14 13 13 12 12 11 11 10 8 8 7 8 8 6 6 7 8 7 5 5 6 5 5 4 5 5 5 5 4 6 4 8 7 10 8 5 6 5 4 4 7 7 10 7 6 5 3 4 4 3 3 3 2 1 0 1
4 15 10 8 5 4 3 10 12 6 5 7 7 7 9 10 11 12 15 15 14 14 14 15 16 16 16 15 15 13 13 11 13 11 12 11 9 7 8 8 7 7 7 7 7 7 5 6 5 5 5 6 6 6 7 7 7 8 8 10 8 11 7 8 4 3 6 3 7 6 9 9 7 5 4 4 3 2 5 3 3 2 1 1 3
4 7 12 9 9 10 7 6 7 12 9 8 7 7 8 9 10 12 15 14 15 15 12 17 16 15 14 13 13 8 10 10 10 10 12 9 9 9 8 8 8 7 7 6 6 5 5 6 6 6 7 8 9 9 9 10 10 10 12 12 12 8 8 2 5 5 6 5 6 6 11 9 7 5 5 3 2 2 2 2 2 2 2 3 3
6 6 5 6 5 8 7 5 9 12 8 6 7 6 7 9 8 10 10 12 14 14 15 12 12 10 12 9 7 8 8 8 9 11 8 9 9 10 9 9 8 7 6 5 5 5 6 7 7 8 9 11 12 8 9 12 13 14 13 14 9 4 1 2 5 3 5 6 6 9 10 8 7 5 5 4 4 4 2 2 2 1 3 2 3
6 6 5 6 7 9 7 4 9 11 8 5 6 7 8 7 8 8 9 12 10 12 9 11 9 10 8 9 5 4 7 7 7 8 8 10 10 10 10 9 7 6 5 5 6 7 8 9 10 11 12 13 9 9 8 8 8 15 14 9 5 3 2 2 3 4 5 7 6 11 9 9 7 7 6 5 3 2 3 3 2 2 2 3 3
6 5 6 6 6 9 9 7 8 8 11 8 7 7 6 6 6 7 9 8 9 8 9 8 8 8 8 7 9 8 8 7 11 14 12 8 8 9 9 7 6 5 6 6 8 10 11 12 12 13 11 7 7 6 3 3 6 8 8 4 3 3 2 2 4 4 5 7 7 12 10 9 8 7 6 5 5 4 4 3 3 3 4 4 4
5 5 6 6 7 8 9 7 7 8 6 11 8 8 8 7 6 7 7 7 8 8 8 8 7 7 6 7 9 9 9 8 8 9 8 7 7 6 6 5 4 5 9 6 7 7 9 7 7 9 8 7 5 1 2 3 2 5 5 4 2 2 5 3 3 4 6 6 7 11 10 8 8 7 6 6 5 6 3 4 4 4 4 4 5
7 5 7 8 8 8 11 9 6 9 10 7 11 9 10 10 10 9 9 8 9 7 7 6 7 6 8 8 8 9 8 7 6 6 7 7 4 3 2 3 6 6 6 7 5 5 7 4 5 4 3 3 3 4 2 0 4 5 3 2 2 3 2 3 3 4 5 6 7 10 10 9 8 7 7 6 6 6 6 4 4 4 5 5 5
6 6 7 7 7 8 8 10 9 7 5 7 9 8 6 7 7 7 8 7 7 8 7 7 7 8 7 8 9 8 8 7 7 7 6 7 8 5 7 7 5 5 7 4 3 3 2 2 2 1 2 2 5 5 3 2 3 5 5 4 2 3 3 3 4 4 5 6 6 10 9 9 8 8 8 8 8 7 8 7 7 7 7 7 8
6 8 8 7 7 10 9 8 8 8 10 8 7 7 9 4 7 7 7 8 8 8 8 7 6 6 5 6 6 7 7 7 6 6 5 5 3 8 8 6 6 4 4 4 3 3 1 2 1 1 1 1 2 5 6 4 3 6 7 4 5 4 4 3 3 5 6 6 5 7 8 8 8 8 8 9 9 9 9 9 9 9 9 9 10
8 8 7 8 8 8 9 10 8 9 8 8 8 7 8 9 8 7 7 7 6 7 8 8 7 6 5 4 5 7 7 7 6 5 5 5 2 7 4 5 4 4 4 4 3 2 1 2 1 2 0 1 4 4 1 5 5 6 6 5 5 3 4 4 3 4 5 5 5 6 8 7 8 8 9 9 9 9 9 10 10 9 10 10 10
9 8 8 8 8 9 10 9 9 8 7 7 7 7 7 7 7 7 7 6 7 8 9 7 7 7 5 4 4 5 6 6 6 5 4 6 4 6 5 4 4 3 3 4 3 3 3 2 1 1 1 2 3 1 1 5 5 5 4 6 7 6 3 4 5 5 4 4 5 5 8 7 7 8 9 9 10 10 10 10 9 9 9 10 10
9 9 9 8 8 8 9 9 9 7 7 7 7 7 7 7 7 7 6 7 8 7 6 7 8 7 6 5 4 4 5 5 5 4 4 4 5 5 4 4 4 3 3 5 3 2 1 2 1 1 2 1 2 2 4 3 4 7 6 6 4 6 5 5 5 4 5 6 3 5 7 10 8 9 9 10 10 10 10 10 9 9 9 10 10
9 8 8 9 9 10 10 9 9 7 7 8 8 7 7 7 7 6 7 7 6 6 6 6 7 7 7 5 4 4 4 5 4 4 4 4 5 4 3 3 4 3 2 4 2 0 1 2 4 1 1 2 3 2 3 4 4 5 4 8 7 4 5 3 5 9 6 4 1 3 3 4 11 10 11 10 10 10 10 10 10 10 10 10 11
7 9 9 10 10 10 10 10 9 8 8 9 8 7 7 7 6 6 6 6 5 6 6 7 7 7 6 5 5 4 4 4 3 2 3 3 4 3 5 3 3 4 1 3 2 2 3 3 3 3 3 2 4 4 5 4 3 3 6 7 5 5 5 2 4 7 6 6 3 5 4 1 3 9 11 11 11 11 10 10 10 10 10 10 11
7 7 10 10 9 8 8 9 9 9 9 8 7 7 7 7 6 7 6 5 6 7 6 7 7 6 6 6 5 4 3 3 3 2 4 5 4 2 4 4 3 2 3 1 1 1 3 1 3 2 4 4 2 3 3 4 5 4 5 6 6 4 5 6 5 4 4 8 4 2 5 3 4 3 4 10 9 10 11 9 9 10 10 10 10
7 9 10 10 10 9 8 8 9 10 9 8 8 7 7 7 7 7 6 5 6 7 7 7 7 7 6 5 5 4 4 3 3 2 2 2 5 4 3 4 2 1 3 2 4 2 1 1 4 5 3 2 4 3 3 4 4 4 3 3 5 4 5 4 3 4 6 4 3 5 5 2 1 1 3 3 9 10 10 8 8 9 9 10 10
9 8 9 9 10 10 10 10 10 10 9 7 7 7 6 7 7 6 6 7 7 7 7 7 7 6 6 6 5 4 3 3 2 1 3 2 4 4 4 3 2 1 2 1 2 2 3 2 4 4 2 4 4 4 3 3 5 5 5 5 4 5 4 5 4 7 3 3 4 4 3 2 2 3 3 2 3 2 9 8 7 7 9 10 9
11 10 10 9 9 10 9 12 12 11 10 9 7 7 6 7 7 7 7 5 5 5 5 5 6 5 4 6 5 4 4 3 2 0 4 2 3 4 4 4 1 2 1 1 1 2 1 4 2 5 6 8 6 2 3 3 4 6 6 4 2 2 3 5 5 4 3 5 4 5 6 3 3 5 5 3 3 1 5 7 5 7 9 9 9
11 11 10 10 10 10 10 11 11 11 9 8 7 6 6 7 6 6 6 6 6 6 5 5 8 6 3 4 4 4 4 3 2 1 2 4 4 3 4 2 1 1 0 1 3 3 3 3 3 2 1 2 5 3 3 2 3 5 5 6 6 4 4 3 3 3 3 2 1 2 2 4 5 4 2 2 2 1 1 6 8 8 10 10 9
10 12 10 9 10 8 9 10 10 10 9 8 7 6 7 6 6 6 5 5 4 5 3 4 5 8 6 6 4 4 4 3 3 2 2 1 3 3 2 1 2 1 1 1 3 3 3 4 4 2 3 2 2 4 4 2 2 3 6 6 3 0 4 4 4 1 1 1 5 3 4 4 5 3 3 4 6 4 4 2 1 3 4 4 7
10 11 11 10 9 9 9 8 9 10 9 8 7 7 6 5 7 6 5 4 4 4 4 4 5 8 4 6 4 4 4 3 3 2 2 1 2 3 2 1 2 2 2 2 3 3 2 2 3 3 3 2 2 2 2 1 2 3 3 5 6 4 2 3 0 1 4 6 3 5 6 9 3 5 7 6 2 2 3 1 3 4 6 4 3
11 11 11 11 10 9 10 10 8 9 8 8 7 7 7 6 5 6 6 5 4 5 4 4 3 6 6 6 4 4 4 4 3 2 3 2 2 3 2 1 1 2 1 2 3 4 3 3 1 2 3 2 2 2 2 2 3 3 2 3 4 4 6 5 7 7 4 2 6 5 3 4 4 5 3 3 2 5 4 3 1 3 5 2 4
11 12 12 11 11 11 11 9 9 9 8 8 6 7 5 5 5 5 4 5 5 4 4 4 4 7 5 5 3 6 4 3 3 1 2 3 2 3 2 1 1 2 1 1 1 1 3 3 4 1 3 8 6 4 4 6 5 3 2 2 2 3 1 6 4 5 7 3 4 3 4 9 4 8 6 6 5 3 3 3 5 5 5 4 3
13 13 12 11 11 10 9 9 9 9 8 8 6 5 5 5 4 5 4 4 4 4 5 4 5 6 6 4 4 4 3 3 4 3 3 2 3 2 3 3 1 2 1 2 1 1 2 2 1 4 5 5 3 7 1 2 6 2 4 5 2 4 2 3 6 3 2 7 8 4 2 6 15 13 4 4 7 3 5 6 4 2 4 3 3
11 12 12 13 11 9 10 9 9 8 8 8 7 5 6 6 3 3 4 3 4 3 5 4 4 7 6 6 4 4 4 5 4 4 4 3 1 1 1 2 2 2 1 1 2 1 2 4 4 4 4 2 3 3 10 3 6 7 3 3 3 5 4 2 2 5 8 3 12 10 10 7 2 2 1 4 8 4 2 5 6 6 4 2 3
12 12 12 12 9 12 11 10 9 8 8 8 7 7 5 5 3 4 4 3 3 4 4 5 4 4 5 5 6 5 4 3 4 3 6 2 1 1 1 1 1 2 4 2 2 5 2 2 2 2 3 4 3 2 5 6 2 4 1 2 1 3 3 7 6 3 8 6 4 7 2 7 4 8 7 3 3 2 1 3 3 2 4 2 3
12 12 12 13 12 12 12 10 9 8 9 9 8 7 6 6 5 5 5 4 5 6 5 6 5 5 7 5 6 7 6 4 4 3 4 4 3 2 1 2 3 2 2 2 1 0 3 6 4 4 2 1 3 4 1 6 2 3 2 5 3 0 2 4 3 2 3 9 2 1 4 5 7 2 7 6 4 8 7 3 11 3 3 1 1
13 13 12 13 13 13 12 11 9 8 9 9 9 7 7 6 6 7 5 5 5 5 4 4 5 4 7 3 5 5 5 6 6 4 4 3 3 2 2 3 1 2 2 2 4 5 2 1 2 1 2 2 3 2 5 2 4 4 2 1 3 3 3 2 1 1 2 5 4 6 5 9 9 3 10 8 9 8 11 10 8 2 2 2 1
14 14 12 12 13 13 13 12 9 8 9 10 9 7 7 6 6 6 6 6 5 4 4 3 4 2 6 5 4 5 5 3 4 5 4 4 4 4 2 2 2 1 2 2 3 2 6 3 1 2 1 2 3 2 4 4 5 4 4 6 4 2 2 5 4 3 5 4 3 3 6 5 9 2 11 5 4 6 5 1 4 3 1 4 2
14 14 13 12 13 13 13 12 11 9 9 11 10 9 7 7 6 6 4 4 4 4 4 3 3 2 3 2 2 5 5 4 2 6 5 5 4 4 4 3 4 2 5 2 4 3 1 2 1 2 3 3 2 2 3 3 6 4 1 3 5 5 5 5 4 4 5 4 4 3 4 9 12 5 4 5 3 6 4 2 5 4 0 3 7
13 14 14 13 13 13 13 13 12 10 9 11 10 10 8 7 7 6 6 4 4 3 4 4 3 3 4 3 3 1 4 5 5 3 5 5 5 4 5 5 3 5 2 1 3 1 2 4 3 1 2 4 2 3 3 3 5 5 5 3 2 5 5 4 5 6 5 5 6 5 5 7 6 3 7 7 8 8 3 4 5 5 2 5 8
13 14 13 14 14 13 14 14 13 10 11 11 11 11 10 8 7 7 7 6 5 4 3 4 4 4 4 5 5 4 3 4 5 6 5 6 5 5 3 4 4 4 2 2 3 4 3 6 3 2 2 3 3 3 4 5 4 3 6 5 3 5 5 6 3 5 6 6 5 7 7 6 6 7 2 6 5 5 8 3 11 6 11 4 5
Wind_Direction
147 121 110 110 105 110 107 110 107 110 107 105 105 107 108 110 109 105 107 102 105 105 100 88 78 79 88 130 251 101 107 91 74 54 79 88 91 84 94 79 64 44 24 44 80 93 90 90 102 106 99 90 84 78 76 77 81 85 87 87 85 84 84 86 88 88 90 94 104 110 105 94 82 76 78 80 83 97 113 135 151 100 90 89 88
136 125 116 109 111 114 114 108 105 111 109 114 111 108 107 108 105 105 106 108 101 95 88 92 92 97 120 153 247 104 105 94 101 102 91 98 93 89 84 86 88 84 74 31 16 62 86 94 94 89 88 87 86 88 85 82 82 85 86 84 83 85 86 86 88 92 94 98 99 98 94 85 74 68 70 68 71 71 64 70 79 88 81 85 86
124 114 112 111 115 116 113 117 116 112 113 115 114 108 105 97 97 103 106 107 103 103 96 95 90 84 56 312 142 109 103 99 97 98 102 103 95 95 93 99 96 87 88 88 63 10 41 83 87 88 86 88 95 93 90 86 83 83 86 87 86 84 86 87 90 94 97 99 100 99 94 85 77 74 71 70 67 66 68 76 76 81 89 93 91
121 116 114 116 118 119 117 114 115 117 115 114 110 109 108 108 109 109 111 111 108 108 111 100 98 86 91 278 119 113 88 79 97 100 102 97 98 98 101 103 102 97 85 84 86 70 19 43 81 85 90 97 95 93 89 86 85 84 84 87 88 86 87 91 94 98 109 113 113 108 106 100 89 81 78 80 78 73 73 76 76 79 86 85 84
124 127 124 129 125 114 113 112 116 121 120 116 114 114 113 116 121 115 116 111 109 101 97 101 94 82 67 102 83 101 103 117 108 107 98 100 104 100 103 102 96 89 91 73 76 83 54 25 28 63 82 94 97 92 87 86 88 88 87 89 94 95 96 98 99 101 99 126 111 116 98 98 95 85 83 82 81 78 77 76 76 79 82 83 84
121 125 130 131 116 106 104 105 111 116 123 123 119 114 117 119 119 120 118 113 112 110 111 110 102 99 102 93 112 110 107 106 107 108 106 106 106 103 104 101 96 94 90 88 75 76 83 63 69 46 76 81 88 92 94 94 92 93 93 90 94 101 102 102 95 93 104 30 304 63 105 103 99 93 89 86 83 82 79 76 76 77 81 84 81
121 124 127 122 117 105 105 101 110 114 118 123 127 124 124 123 121 124 123 120 118 112 116 108 87 104 101 77 139 118 115 103 103 103 102 105 105 107 107 103 99 96 96 97 90 82 92 84 63 92 68 83 87 93 96 94 93 94 97 99 99 102 104 100 108 103 87 114 122 175 102 97 97 96 95 90 88 89 88 89 91 92 92 89 76
121 124 118 125 118 116 103 100 99 109 112 120 125 127 123 121 118 121 123 120 113 110 114 112 122 118 110 147 119 106 97 99 99 101 105 108 108 112 109 105 105 104 101 98 91 68 81 105 125 91 78 77 91 93 96 100 100 100 100 102 103 104 103 113 147 177 160 167 106 77 88 92 92 98 95 93 93 92 96 99 101 91 81 84 103
125 119 121 116 102 97 108 106 108 101 109 111 115 117 121 121 115 109 116 118 114 123 119 113 108 122 134 128 105 103 102 101 104 107 106 108 113 111 108 105 105 104 99 90 86 78 67 69 46 70 91 87 89 91 89 91 93 92 91 99 103 105 111 125 266 257 186 92 99 99 94 101 102 97 94 92 86 81 87 102 92 92 78 73 67
129 135 120 100 94 93 96 98 89 98 109 114 112 116 120 118 116 115 118 135 121 120 122 111 118 113 103 101 103 108 105 106 109 109 113 114 118 114 109 108 108 107 100 97 88 81 76 81 75 32 81 83 81 87 87 84 83 85 86 85 96 103 144 255 239 209 97 110 87 79 68 89 89 86 93 92 88 87 80 71 71 69 79 80 75
121 117 98 101 93 96 97 100 99 108 118 119 121 125 125 126 119 128 134 124 119 117 118 119 107 118 120 102 91 103 111 111 112 112 112 116 120 118 113 112 106 104 98 92 89 89 92 80 104 93 84 79 85 89 86 86 83 79 78 76 66 345 352 277 283 72 56 77 107 110 85 80 85 91 89 81 78 81 76 73 75 80 81 81 79
115 81 102 94 100 98 106 110 115 121 119 122 120 129 134 129 124 124 122 124 118 114 120 107 125 128 124 123 126 126 112 119 117 115 117 120 118 115 116 116 112 105 95 89 82 75 92 109 101 105 79 73 84 87 85 83 83 81 75 60 40 321 312 297 284 91 88 85 68 77 93 93 91 88 89 86 79 71 70 76 78 81 75 71 70
114 103 107 110 105 111 115 119 123 122 127 124 141 143 134 123 116 121 131 125 109 118 120 132 137 129 133 132 137 133 115 117 116 117 117 117 116 112 113 110 108 103 99 95 93 86 92 102 88 76 67 82 81 85 91 89 85 81 71 52 358 323 305 310 30 63 81 80 73 83 92 88 82 83 84 85 85 83 82 78 76 74 71 68 69
117 113 97 104 108 113 120 128 132 141 145 154 154 134 128 118 128 125 130 136 153 146 140 144 129 123 124 117 112 115 121 118 119 120 121 116 113 116 115 113 108 106 106 104 103 106 106 92 92 80 70 78 86 74 88 93 90 84 70 45 339 321 307 298 112 99 84 88 97 92 83 78 82 86 86 91 88 91 89 84 82 73 76 72 71
98 95 104 118 118 113 121 131 136 142 145 138 136 134 131 129 143 144 145 151 151 151 146 132 122 117 109 109 114 120 120 120 120 120 118 118 116 111 112 116 113 108 100 103 113 121 109 102 95 85 92 91 84 86 93 91 94 87 71 25 296 281 288 279 87 87 93 77 98 113 95 94 98 95 103 102 104 98 89 80 73 95 79 75 60
107 114 112 104 112 120 125 138 144 143 140 137 132 133 131 132 147 132 137 143 148 145 138 128 124 123 120 120 117 117 119 122 121 122 120 117 114 116 115 110 107 100 99 104 111 104 106 107 107 113 113 108 88 105 101 103 102 100 114 324 297 295 302 307 117 123 122 123 122 82 95 95 103 106 102 113 106 92 76 79 71 63 73 63 59
109 114 104 112 123 128 131 142 142 141 137 136 126 137 134 133 124 122 129 135 132 137 133 128 122 114 113 115 121 124 124 127 127 123 124 120 120 118 121 120 117 112 109 114 130 146 115 118 144 158 158 140 160 122 123 118 124 140 152 239 279 281 283 284 163 93 72 60 58 100 104 107 95 109 112 91 84 85 87 72 75 70 54 56 26
116 124 120 121 150 126 169 135 139 139 131 126 126 135 131 123 125 124 124 129 129 131 131 125 119 120 122 139 136 134 131 131 134 131 126 127 129 129 120 114 117 114 116 133 162 117 134 151 165 182 177 172 145 137 157 155 146 166 205 240 217 262 267 276 269 106 112 201 101 77 84 98 106 108 125 117 117 105 85 80 81 81 54 61 150
132 120 106 131 157 181 162 135 133 112 125 122 125 120 122 123 128 123 125 123 124 125 125 128 129 139 149 156 141 137 134 132 135 140 136 136 134 136 126 124 115 119 140 160 131 119 123 139 153 164 164 149 155 170 164 175 193 207 229 228 236 247 264 264 239 128 148 135 104 84 96 107 118 127 132 141 128 122 113 125 93 88 187 48 360
133 112 144 152 142 85 125 138 137 140 119 111 118 123 118 124 121 118 120 127 130 132 137 138 144 157 158 147 140 140 141 139 140 141 144 142 148 127 130 122 134 145 155 129 117 129 145 162 176 179 178 189 184 189 191 190 195 223 231 234 230 244 247 243 120 93 79 74 76 93 111 121 134 138 137 155 138 134 144 129 102 104 182 246 275
104 120 138 158 161 163 136 101 119 111 115 110 113 117 121 120 116 127 129 128 133 140 147 150 160 154 146 140 138 137 137 135 139 134 143 144 138 144 149 150 150 146 128 123 122 138 166 184 187 195 204 212 215 211 206 203 209 225 237 236 241 231 223 273 118 111 119 120 102 105 131 135 142 156 151 150 170 170 111 142 163 213 258 227 260
128 118 112 115 111 86 84 100 114 105 102 117 119 119 125 125 136 133 136 137 142 152 157 149 148 146 146 151 136 156 142 144 134 136 130 136 139 143 148 147 139 137 129 134 153 170 189 197 205 209 217 222 221 217 207 211 214 219 230 240 242 204 360 133 79 112 109 106 101 121 139 147 150 161 175 183 194 190 198 193 193 244 279 303 282
123 127 114 120 112 103 113 105 113 117 112 114 118 134 144 141 144 142 133 138 152 156 152 147 145 147 162 134 150 146 148 134 134 127 127 129 132 146 146 139 139 134 152 170 188 198 203 209 213 216 222 229 227 232 196 193 201 215 230 237 221 100 100 79 111 113 92 93 99 131 142 155 166 175 182 202 202 218 220 239 194 238 243 248 278
132 117 120 117 130 122 124 138 103 118 139 143 142 153 147 142 149 153 146 156 157 153 150 149 149 154 151 149 144 152 134 126 116 122 130 135 141 140 137 133 139 165 183 197 203 207 212 215 216 221 226 226 231 215 132 145 172 193 210 197 67 104 89 132 131 91 103 99 109 147 154 165 179 181 184 192 218 220 234 262 294 285 282 287 281
96 118 125 127 124 124 118 94 125 136 172 135 154 158 146 144 180 157 150 158 143 152 148 148 151 150 140 141 140 136 128 128 150 149 131 133 132 131 137 141 161 179 198 215 194 180 207 201 209 215 226 210 192 138 90 114 27 70 46 54 80 102 126 87 56 103 92 102 120 155 164 172 184 194 201 210 218 225 227 240 247 253 260 276 288
134 142 118 132 140 134 125 138 162 150 129 169 153 157 164 150 156 146 149 164 142 142 143 144 146 146 168 133 125 129 137 140 136 117 125 111 104 99 85 189 186 153 187 211 159 154 203 187 187 202 216 138 81 32 55 360 108 88 81 133 118 111 93 79 98 100 108 104 136 161 174 180 191 202 211 224 236 242 252 279 276 279 287 292 299
128 122 134 126 129 125 127 138 142 130 116 126 131 145 149 128 132 135 140 136 142 144 140 140 141 163 134 135 143 137 131 128 124 130 121 131 136 139 196 204 144 167 181 139 154 176 180 146 111 179 258 124 110 141 116 27 95 116 123 80 116 101 84 103 103 104 99 105 131 172 180 189 200 209 220 231 239 249 259 263 270 277 291 294 292
132 136 134 134 137 130 136 128 131 141 139 147 131 127 105 130 123 139 143 134 149 141 132 124 132 122 153 134 130 128 125 123 127 119 118 109 159 141 151 211 149 153 140 144 151 134 127 88 85 55 259 4 102 138 131 115 106 97 83 85 43 55 77 91 106 115 120 119 130 176 183 200 209 221 228 236 245 252 260 265 270 277 283 288 288
131 134 135 131 126 128 140 139 131 134 136 139 131 132 133 144 141 136 130 154 136 127 123 135 133 126 118 138 132 122 125 122 113 115 119 96 98 65 239 127 136 131 148 125 106 109 135 124 189 146 153 170 129 106 136 144 133 131 132 116 134 86 70 94 92 85 105 119 122 146 189 199 221 230 236 246 252 259 263 266 270 275 279 283 287
132 136 134 129 134 144 136 133 134 136 139 133 128 128 129 129 127 129 124 142 125 122 142 137 127 135 128 86 85 109 106 100 115 113 114 133 161 139 154 121 113 146 123 110 139 143 141 120 99 108 124 130 77 64 166 112 82 59 117 121 78 78 89 63 78 72 49 85 97 130 181 203 228 236 245 248 258 263 265 270 273 276 279 282 287
133 139 133 133 136 143 131 131 131 137 130 131 128 124 127 125 129 130 135 125 128 143 144 136 134 116 104 94 92 85 105 122 113 121 129 143 127 162 140 129 139 105 131 133 95 54 40 96 19 123 160 111 124 146 121 103 113 143 119 104 132 117 72 92 111 183 97 58 72 116 164 196 214 231 240 247 256 260 266 273 276 279 280 282 284
137 137 133 141 148 138 131 133 135 136 131 131 131 131 127 125 136 133 126 124 158 139 125 114 107 108 115 117 78 70 86 85 83 123 118 130 132 129 123 117 100 129 60 44 93 134 83 113 128 85 39 137 132 177 136 130 129 89 115 116 114 124 144 153 66 60 97 102 133 97 90 191 200 214 227 237 243 252 264 269 274 276 278 279 279
139 140 144 146 142 137 133 139 131 132 139 135 130 131 133 137 133 119 121 148 136 120 113 109 110 117 117 106 99 98 107 122 98 97 131 104 103 122 117 125 129 104 84 92 94 210 182 145 172 177 214 149 124 160 138 93 56 109 116 108 90 80 73 97 146 131 149 148 75 76 138 123 122 207 226 229 227 234 239 255 267 271 274 274 275
139 141 151 144 143 134 144 135 134 139 144 131 132 136 143 131 131 127 141 156 134 125 123 120 126 127 125 122 119 102 91 87 113 88 272 157 120 114 113 121 108 91 119 221 140 24 68 330 53 350 118 221 143 124 118 138 141 131 107 104 111 157 192 124 134 170 105 89 113 167 72 71 175 231 199 209 236 238 234 235 252 264 269 270 274
142 153 149 144 145 144 142 134 143 134 138 130 141 136 143 138 130 142 145 143 134 137 135 136 144 138 139 128 124 112 101 91 76 359 58 91 133 120 140 115 105 195 129 97 261 67 35 72 96 255 118 54 98 37 72 114 112 61 33 80 89 50 82 68 96 150 108 124 129 111 130 161 351 8 290 178 209 225 239 233 235 255 260 266 271
152 147 144 153 146 140 146 138 138 140 125 143 130 137 137 133 131 137 147 150 150 142 140 151 137 140 140 126 122 115 108 94 77 47 265 137 109 132 106 110 165 150 94 47 298 96 67 49 70 245 100 175 143 145 113 82 92 122 150 127 150 166 116 185 154 89 111 106 118 150 159 146 225 156 283 296 326 203 216 228 235 246 255 261 264
144 151 154 150 148 142 149 142 145 134 139 133 137 134 135 126 137 148 130 132 122 125 138 128 137 99 94 125 133 125 108 112 115 22 344 357 110 121 140 146 158 91 300 184 99 68 60 101 30 16 34 342 348 56 124 127 158 140 129 115 82 89 172 56 87 131 125 152 198 189 177 170 161 167 232 196 248 351 193 223 244 255 267 263 260
137 151 159 156 150 150 153 143 137 139 135 135 141 145 135 140 154 133 152 153 149 146 137 143 122 120 134 134 134 128 125 118 114 110 146 255 69 54 71 91 126 116 263 82 37 32 27 45 78 30 35 231 215 202 137 156 153 129 119 125 154 139 130 139 112 170 154 191 165 100 190 187 161 184 251 314 242 161 315 162 216 244 256 256 250
155 151 158 157 146 156 139 135 144 140 138 139 153 147 141 163 141 143 150 138 160 116 142 134 129 139 153 130 149 144 122 120 110 128 11 330 122 90 115 34 107 110 332 174 103 60 20 17 34 98 311 16 339 8 38 321 110 145 133 116 103 20 101 142 192 193 167 191 153 257 180 200 218 172 211 188 266 164 214 321 227 312 290 231 250
154 147 154 157 149 148 144 147 153 143 143 147 162 154 158 162 152 146 151 153 126 129 144 130 136 97 147 135 146 111 118 115 118 101 111 337 85 122 77 183 118 115 21 24 54 91 16 57 71 21 294 360 271 215 164 267 122 40 87 144 148 165 175 141 42 112 186 199 188 184 226 203 179 163 169 194 178 281 40 17 4 325 317 337 305
144 152 160 158 157 155 150 158 153 148 153 159 166 160 161 161 153 161 155 148 142 139 152 131 144 122 134 119 131 123 121 115 114 129 124 117 79 96 125 46 115 102 85 41 52 26 4 322 89 294 314 178 19 315 140 353 39 79 203 149 168 174 160 248 139 219 300 255 189 192 210 84 21 336 316 357 334 335 77 96 40 290 271 252 241
155 159 166 163 160 160 157 159 157 160 160 162 162 163 163 161 159 161 157 142 141 170 133 160 143 112 104 128 164 110 120 130 120 131 136 135 142 139 127 121 132 108 87 37 70 14 330 332 360 42 281 35 324 354 45 51 319 199 83 241 193 172 102 219 174 186 214 250 278 193 229 111 41 292 238 220 101 124 196 209 183 228 244 258 284
160 163 165 164 164 158 160 163 160 166 161 163 170 163 161 151 173 146 167 133 154 162 150 143 130 133 149 159 110 119 155 134 145 155 150 146 125 115 166 132 84 133 182 204 130 360 295 348 330 42 8 23 19 315 1 102 202 215 122 38 268 10 291 353 298 348 205 187 240 278 315 166 157 226 224 263 132 169 233 237 205 208 261 257 285
167 163 167 166 167 160 161 169 162 171 166 156 175 164 155 151 157 164 138 159 141 105 126 139 157 145 153 158 142 153 200 154 174 170 92 100 131 178 112 115 132 63 336 25 257 304 54 310 36 20 0 118 347 341 310 31 345 98 340 207 88 123 281 331 324 264 271 347 6 44 307 324 83 241 122 279 133 184 195 285 149 222 221 262 267
171 167 172 167 168 164 164 170 167 167 174 157 175 161 147 149 159 141 116 101 142 148 156 175 165 166 158 173 153 168 195 164 147 122 134 141 102 68 65 116 110 181 197 179 226 204 205 107 83 52 332 347 152 9 305 295 75 6 282 82 202 150 255 199 233 325 307 83 247 234 278 331 58 239 282 244 66 224 333 297 352 220 196 255 278
173 172 176 168 167 165 164 170 169 170 176 161 172 168 161 165 164 165 170 167 172 175 183 175 175 177 178 174 151 168 179 157 152 162 132 138 174 134 200 232 164 171 277 293 307 298 192 141 226 128 232 110 350 289 254 282 8 170 205 189 204 359 209 332 336 238 318 339 334 295 256 192 276 334 358 299 96 35 336 2 247 354 66 201 8
171 173 178 168 165 162 164 170 169 174 169 167 172 176 164 179 180 178 175 176 181 173 179 175 158 187 95 190 155 162 171 172 157 168 136 146 151 158 171 238 182 177 216 194 223 254 160 158 61 49 31 56 295 267 279 261 263 326 267 87 225 279 295 302 334 328 340 271 315 300 238 226 240 185 213 230 108 139 219 235 15 43 130 249 187
171 170 176 170 165 164 165 170 170 176 174 164 177 178 174 181 188 203 174 187 181 157 162 169 158 192 142 167 160 154 167 206 149 136 167 165 177 178 183 240 241 218 200 229 248 230 36 33 269 30 344 321 270 299 308 331 305 202 21 323 332 320 262 244 296 318 292 297 269 262 298 345 293 313 264 17 289 211 112 65 152 319 116 356 296
173 170 174 169 164 167 165 172 170 174 177 168 177 182 181 183 188 195 181 187 167 176 173 170 144 172 154 136 172 147 161 181 179 160 191 170 176 189 191 210 221 194 218 226 230 110 177 45 244 188 235 222 284 2 306 319 297 348 93 323 335 310 310 313 284 227 257 298 319 316 321 323 298 292 20 322 294 338 348 343 92 103 207 28 294
174 170 172 169 167 167 170 174 172 178 174 170 182 183 185 186 189 198 179 187 174 175 189 166 153 169 173 166 181 170 180 174 179 198 171 190 194 162 211 208 191 239 125 355 314 54 211 186 236 270 5 325 308 280 291 307 300 325 310 315 328 302 297 311 307 306 333 324 298 307 304 275 270 11 16 342 335 324 340 334 71 354 1 214 263
176 172 175 169 169 168 171 176 174 179 172 174 182 183 189 187 189 196 185 188 192 164 180 164 184 180 201 189 183 187 233 179 185 177 193 196 186 202 203 231 219 156 279 225 221 217 156 265 210 118 229 263 286 312 285 257 264 289 282 263 287 294 338 312 1 335 295 301 304 304 302 301 322 329 298 262 293 356 336 349 87 233 225 40 286